PAL1864 RPVP-RPLC

Flight info

Callsign PAL1864
Flight time N/A
Altitude 35000
Route NOMYO1E NOMYO M646 MIA W16 OLIVA OLIVA5R
Aircraft A321/M-SDE3FGHIRWY/LB1

Departure

Time 2026-05-05 09:43
Airport Puerto Princesa International Airport / PAF Antonio Bautista Air Base (RPVP)

Arrival

Time N/A
Airport Clark International Airport / Clark Air Base (RPLC)
Time Latitude Longitude Altitude Speed Heading
2026-05-05 09:29 9.74508 118.74997 75 ft 0 kts
2026-05-05 09:35 9.74504 118.74997 75 ft 2 kts
2026-05-05 09:35 9.74474 118.74995 75 ft 2 kts
2026-05-05 09:35 9.74465 118.74995 75 ft 2 kts
2026-05-05 09:36 9.74450 118.74997 75 ft 2 kts 341°
2026-05-05 09:36 9.74436 118.75003 75 ft 2 kts 326°
2026-05-05 09:36 9.74424 118.75013 75 ft 2 kts 308°
2026-05-05 09:36 9.74417 118.75026 75 ft 2 kts 291°
2026-05-05 09:37 9.74413 118.75040 75 ft 1 kts 275°
2026-05-05 09:37 9.74413 118.75047 75 ft 1 kts 271°
2026-05-05 09:37 9.74413 118.75048 75 ft 0 kts 272°
2026-05-05 09:39 9.74413 118.75040 75 ft 3 kts 272°
2026-05-05 09:39 9.74414 118.74998 75 ft 6 kts 273°
2026-05-05 09:39 9.74417 118.74949 75 ft 7 kts 272°
2026-05-05 09:39 9.74419 118.74892 75 ft 8 kts 272°
2026-05-05 09:40 9.74422 118.74830 75 ft 9 kts 272°
2026-05-05 09:40 9.74424 118.74763 75 ft 10 kts 271°
2026-05-05 09:40 9.74390 118.74708 75 ft 10 kts 195°
2026-05-05 09:40 9.74319 118.74705 75 ft 10 kts 180°
2026-05-05 09:41 9.74268 118.74707 75 ft 3 kts 145°
2026-05-05 09:41 9.74255 118.74738 75 ft 5 kts 91°
2026-05-05 09:41 9.74254 118.74783 75 ft 7 kts 91°
2026-05-05 09:41 9.74253 118.74812 75 ft 0 kts 92°
2026-05-05 09:42 9.74252 118.74847 75 ft 27 kts 91°
2026-05-05 09:42 9.74233 118.75285 75 ft 95 kts 93°
2026-05-05 09:42 9.74194 118.76184 76 ft 154 kts 92°
2026-05-05 09:43 9.74137 118.77341 458 ft 168 kts 93°
2026-05-05 09:43 9.74077 118.78525 1042 ft 171 kts 93°
2026-05-05 09:43 9.74259 118.79690 1601 ft 174 kts 58°
2026-05-05 09:43 9.75246 118.80429 1984 ft 187 kts 17°
2026-05-05 09:44 9.76589 118.80636 2280 ft 204 kts
2026-05-05 09:44 9.78068 118.80801 2578 ft 222 kts 10°
2026-05-05 09:44 9.79648 118.81049 2931 ft 239 kts 12°
2026-05-05 09:44 9.81339 118.81377 3471 ft 247 kts 14°
2026-05-05 09:45 9.83010 118.81763 4175 ft 247 kts 15°
2026-05-05 09:45 9.84683 118.82162 4853 ft 249 kts 15°
2026-05-05 09:45 9.86368 118.82566 5516 ft 251 kts 15°
2026-05-05 09:45 9.88093 118.82970 6170 ft 254 kts 13°
2026-05-05 09:46 9.89853 118.83201 6796 ft 258 kts
2026-05-05 09:46 9.91695 118.83219 7199 ft 273 kts
2026-05-05 09:46 9.93657 118.83165 7620 ft 284 kts 360°
2026-05-05 09:46 9.95626 118.83097 8234 ft 288 kts 359°
2026-05-05 09:47 9.97655 118.83028 8876 ft 290 kts 359°
2026-05-05 09:47 9.99661 118.82963 9477 ft 292 kts 359°
2026-05-05 09:47 10.01721 118.82898 10060 ft 294 kts 359°
2026-05-05 09:47 10.03777 118.82835 10458 ft 303 kts 359°
2026-05-05 09:48 10.05950 118.82770 10710 ft 317 kts 359°
2026-05-05 09:48 10.08222 118.82703 10980 ft 330 kts 359°
2026-05-05 09:48 10.10541 118.82634 11428 ft 335 kts 359°
2026-05-05 09:48 10.12891 118.82668 11933 ft 337 kts 10°
2026-05-05 09:49 10.15068 118.83495 12401 ft 337 kts 33°
2026-05-05 09:49 10.16804 118.85071 12910 ft 337 kts 48°
2026-05-05 09:49 10.18402 118.86859 13408 ft 340 kts 48°
2026-05-05 09:49 10.19977 118.88618 13868 ft 342 kts 48°
2026-05-05 09:50 10.21591 118.90411 14319 ft 345 kts 48°
2026-05-05 09:50 10.23240 118.92235 14778 ft 348 kts 48°
2026-05-05 09:50 10.24883 118.94048 15228 ft 350 kts 48°
2026-05-05 09:50 10.26541 118.95874 15669 ft 352 kts 48°
2026-05-05 09:51 10.28201 118.97703 16097 ft 355 kts 49°
2026-05-05 09:51 10.29885 118.99556 16514 ft 357 kts 49°
2026-05-05 09:51 10.31578 119.01419 16935 ft 359 kts 49°
2026-05-05 09:51 10.33303 119.03259 17336 ft 362 kts 45°
2026-05-05 09:52 10.35270 119.04871 17708 ft 366 kts 36°
2026-05-05 09:52 10.37485 119.06178 18076 ft 370 kts 27°
2026-05-05 09:52 10.39841 119.07295 18455 ft 373 kts 26°
2026-05-05 09:52 10.42233 119.08388 18825 ft 376 kts 25°
2026-05-05 09:53 10.44619 119.09473 19187 ft 378 kts 25°
2026-05-05 09:53 10.47031 119.10574 19538 ft 381 kts 26°
2026-05-05 09:53 10.49469 119.11689 19890 ft 383 kts 26°
2026-05-05 09:53 10.51918 119.12813 20240 ft 385 kts 25°
2026-05-05 09:54 10.54364 119.13938 20580 ft 387 kts 25°
2026-05-05 09:54 10.56841 119.15077 20921 ft 389 kts 25°
2026-05-05 09:54 10.59312 119.16215 21253 ft 391 kts 25°
2026-05-05 09:54 10.61805 119.17362 21571 ft 393 kts 25°
2026-05-05 09:55 10.64305 119.18514 21880 ft 396 kts 25°
2026-05-05 09:55 10.66828 119.19677 22182 ft 398 kts 25°
2026-05-05 09:55 10.69377 119.20851 22489 ft 400 kts 25°
2026-05-05 09:55 10.71904 119.22017 22782 ft 402 kts 25°
2026-05-05 09:56 10.74465 119.23198 23063 ft 404 kts 25°
2026-05-05 09:56 10.77062 119.24397 23346 ft 407 kts 25°
2026-05-05 09:56 10.79623 119.25577 23619 ft 409 kts 25°
2026-05-05 09:56 10.82259 119.26793 23906 ft 411 kts 25°
2026-05-05 09:57 10.84847 119.27988 24185 ft 412 kts 25°
2026-05-05 09:57 10.87485 119.29205 24466 ft 414 kts 25°
2026-05-05 09:57 10.90108 119.30416 24730 ft 416 kts 25°
2026-05-05 09:57 10.92765 119.31643 24995 ft 418 kts 25°
2026-05-05 09:58 10.95427 119.32873 25262 ft 419 kts 25°
2026-05-05 09:58 10.96294 119.33274 25349 ft 420 kts 25°
2026-05-05 09:58 10.99914 119.34946 25708 ft 422 kts 25°
2026-05-05 09:58 11.03522 119.36614 26042 ft 424 kts 25°
2026-05-05 09:59 11.06213 119.37857 26275 ft 426 kts 25°
2026-05-05 09:59 11.08944 119.39120 26506 ft 428 kts 25°
2026-05-05 09:59 11.11685 119.40387 26744 ft 430 kts 25°
2026-05-05 09:59 11.14419 119.41652 26981 ft 432 kts 25°
2026-05-05 10:00 11.17169 119.42924 27214 ft 434 kts 24°
2026-05-05 10:00 11.19930 119.44202 27459 ft 435 kts 24°
2026-05-05 10:00 11.22683 119.45476 27702 ft 436 kts 24°
2026-05-05 10:00 11.25447 119.46755 27913 ft 438 kts 24°
2026-05-05 10:01 11.27211 119.47572 28053 ft 439 kts 24°
2026-05-05 10:01 11.30014 119.48869 28279 ft 440 kts 24°
2026-05-05 10:01 11.32846 119.50181 28491 ft 442 kts 24°
2026-05-05 10:01 11.35659 119.51485 28696 ft 444 kts 24°
2026-05-05 10:02 11.38492 119.52798 28916 ft 446 kts 24°
2026-05-05 10:02 11.41310 119.54104 29128 ft 447 kts 24°
2026-05-05 10:02 11.44168 119.55428 29344 ft 449 kts 24°
2026-05-05 10:02 11.47018 119.56751 29561 ft 450 kts 24°
2026-05-05 10:03 11.49867 119.58073 29779 ft 451 kts 24°
2026-05-05 10:03 11.51778 119.58959 29921 ft 452 kts 24°
2026-05-05 10:03 11.55607 119.60736 30213 ft 454 kts 24°
2026-05-05 10:03 11.58533 119.62094 30423 ft 455 kts 24°
2026-05-05 10:04 11.61419 119.63434 30624 ft 456 kts 24°
2026-05-05 10:04 11.64320 119.64781 30820 ft 458 kts 24°
2026-05-05 10:04 11.67199 119.66119 31025 ft 459 kts 24°
2026-05-05 10:04 11.70144 119.67488 31299 ft 458 kts 24°
2026-05-05 10:05 11.73030 119.68845 31592 ft 457 kts 24°
2026-05-05 10:05 11.75929 119.70220 31886 ft 456 kts 24°
2026-05-05 10:05 11.78799 119.71584 32167 ft 455 kts 24°
2026-05-05 10:05 11.81691 119.72958 32439 ft 454 kts 24°
2026-05-05 10:06 11.84579 119.74329 32717 ft 454 kts 24°
2026-05-05 10:06 11.87321 119.75631 33015 ft 453 kts 24°